Track STARLINK-1171 now! 10-day predictions STARLINK-1171 is classified as:
1 45062U 20006U 21107.49803585 -.00000304 00000-0 -14929-5 0 9997 2 45062 53.0558 29.6396 0001644 77.6021 282.5152 15.06397955 67095